Regional Weather Roundup
Issued by NWS

Home | Current Version | Previous Version | Text Only | Print | Product List | Glossary On
Versions: 1 2 3 4 5 6 7 8 9 10 11 12 13 14 15 16 17 18 19 20 21 22 23 24 25 26 27 28 29 30 31 32 33 34 35 36 37 38 39 40 41 42 43 44 45 46 47 48 49 50
000
ASUS43 KLSX 020907
RWRMO

WEATHER SUMMARY FOR MISSOURI
NATIONAL WEATHER SERVICE SPRINGFIELD MO
400 AM CDT TUE SEP 02 2014

NOTE: "FAIR" INDICATES FEW OR NO CLOUDS BELOW 12,000 FEET WITH NO
       SIGNIFICANT WEATHER AND/OR OBSTRUCTIONS TO VISIBILITY.
       CURRENT SKY AND/OR WEATHER CONDITIONS ARE NOT AVAILABLE FOR
       CHILLICOTHE AND FARMINGTON.

MOZ001>031-035>038-043-044-053-054-021000-
...NORTHERN AND WESTERN MISSOURI...

CITY           SKY/WX    TMP DP  RH WIND       PRES   REMARKS
KANSAS CTY INT MOCLDY    66  65  96 CALM      29.94R
KANSAS C DTWN  CLOUDY    71  69  93 N6        29.92R FOG
LEE`S SUMMIT   CLOUDY    69  68  96 N5        29.94R FOG
ST JOSEPH      PTCLDY    63  62  97 CALM      29.94R
CHILLICOTHE      N/A     67  65  93 CALM      29.94S
KIRKSVILLE     FOG       67  66  97 CALM      29.93R VSB 1/2

$$
MOZ066>068-077>081-088>096-101>105-021000-
...SOUTHWEST MISSOURI...

CITY           SKY/WX    TMP DP  RH WIND       PRES   REMARKS
SPRINGFIELD    LGT RAIN  69  64  84 S22       29.94S
JOPLIN         LGT RAIN  70  66  87 SW7       29.91R

$$
MOZ032>034-039>042-045>050-055>058-069>072-021000-
...CENTRAL MISSOURI...

CITY           SKY/WX    TMP DP  RH WIND       PRES   REMARKS
COLUMBIA       CLOUDY    69  68  96 SE8       29.90F
JEFFERSON CITY CLOUDY    70  68  93 CALM      29.90S
ROLLA            N/A    N/A N/A N/A MISG      29.90F
SEDALIA        CLOUDY    71  69  93 SE6       29.91R
WHITEMAN AFB   MOCLDY    69  69  98 N6        29.92R
OSAGE BEACH    CLOUDY    70  66  88 CALM      29.90S

$$
MOZ051-052-059>065-021000-
...EAST CENTRAL MISSOURI...

CITY           SKY/WX    TMP DP  RH WIND       PRES   REMARKS
ST LOUIS INTL  TSTM      71  68  90 SE9       29.90F
SPIRIT OF STL  CLOUDY    69  67  93 SE3       29.88F
ST CHARLES     CLOUDY    69  68  96 CALM      29.88F

$$
MOZ072>076-082>087-097>100-106>115-021000-
...SOUTH CENTRAL AND SOUTHEAST MISSOURI...

CITY           SKY/WX    TMP DP  RH WIND       PRES   REMARKS
CAPE GIRARDEAU CLOUDY    77  72  84 S7        29.93S
FARMINGTON     CLOUDY    73  72  94 CALM      29.98R
POPLAR BLUFF   CLOUDY    76  71  85 S7        29.93S
WEST PLAINS    CLOUDY    75  71  87 SW9       29.97S

$$



USA.gov is the U.S. government's official web portal to all federal, state and local government web resources and services.